Change the Weather History Date:

Wednesday, September 4, 2013

  Actual Average Record
Temperature  
Mean Temperature 50 °F -  
Max Temperature 54 °F 57 °F 70 °F (1963)
Min Temperature 46 °F 42 °F 28 °F (1982)
Degree Days  
Heating Degree Days 16    
Moisture  
Dew Point 46 °F    
Average Humidity 89    
Maximum Humidity 100    
Minimum Humidity 71    
Precipitation  
Precipitation 0.28 in - - ()
Sea Level Pressure  
Sea Level Pressure 29.57 in    
Wind  
Wind Speed 7 mph (South)    
Max Wind Speed 24 mph    
Max Gust Speed 32 mph    
Visibility 9 miles    
Events Rain    
Averages and records for this station are not official NWS values.
T = Trace of Precipitation, MM = Missing Value Source: NWS Daily Summary

Daily Weather History Graph

Daily Weather History Graph

Search for Another Location

Airport or City:

Trip Planner

Search our weather history database for the weather conditions in past years. The results will help you decide how hot, cold, wet, or windy it might be!

Date:

Astronomy

Sep. 04, 2013 Rise Set
Actual Time 7:06 AM AKDT 8:59 PM AKDT
Civil Twilight 6:21 AM AKDT 9:43 PM AKDT
Nautical Twilight 5:23 AM AKDT 10:41 PM AKDT
Astronomical Twilight 4:10 AM AKDT 11:53 PM AKDT
Moon 6:33 AM AKDT (9/4) 8:11 PM AKDT (9/4)
Length of Visible Light 15h 22m
Length of Day
13h 52m
Waning Crescent, 0% of the Moon is Illuminated
Sep 4
Waning Crescent
Sep 5
New
Sep 12
First Quarter
Sep 19
Full
Sep 26
Last Quarter

Hourly Weather History & Observations

Time (AKDT) Temp. Windchill Dew Point Humidity Pressure Visibility Wind Dir Wind Speed Gust Speed Precip Events Conditions
12:53 AM 48.0 °F - 48.0 °F 100% 29.42 in 10.0 mi Calm Calm - N/A   Overcast
1:53 AM 48.0 °F - 48.0 °F 100% 29.42 in 10.0 mi NNE 3.5 mph - 0.00 in Rain Light Rain
2:53 AM 46.9 °F - 46.9 °F 100% 29.42 in 6.0 mi Calm Calm - 0.09 in Rain Rain
3:53 AM 46.9 °F - 46.9 °F 100% 29.42 in 7.0 mi Calm Calm - 0.06 in Rain Light Rain
4:53 AM 46.9 °F - 46.9 °F 100% 29.43 in 9.0 mi ESE 4.6 mph - 0.05 in Rain Light Rain
5:53 AM 46.9 °F - 46.9 °F 100% 29.44 in 4.0 mi Calm Calm - 0.05 in Rain Light Rain
6:08 AM 46.4 °F - 46.4 °F 100% 29.43 in 8.0 mi Calm Calm - 0.02 in Rain Light Rain
6:53 AM 46.9 °F - 46.9 °F 100% 29.45 in 10.0 mi Calm Calm - 0.03 in Rain Light Rain
7:26 AM 46.4 °F - 46.4 °F 100% 29.45 in 10.0 mi Calm Calm - 0.00 in   Overcast
7:53 AM 46.0 °F 43.9 °F 46.0 °F 100% 29.47 in 10.0 mi ESE 4.6 mph - 0.00 in   Mostly Cloudy
8:53 AM 48.0 °F - 48.0 °F 100% 29.49 in 10.0 mi SE 6.9 mph - N/A   Overcast
9:53 AM 48.0 °F - 48.0 °F 100% 29.51 in 10.0 mi SE 5.8 mph - N/A   Overcast
10:53 AM 50.0 °F - 48.0 °F 93% 29.53 in 10.0 mi South 9.2 mph - N/A   Overcast
11:53 AM 52.0 °F - 48.9 °F 89% 29.56 in 10.0 mi South 18.4 mph 26.5 mph N/A   Overcast
12:20 PM 51.8 °F - 48.2 °F 88% 29.56 in 10.0 mi SSW 20.7 mph 27.6 mph N/A   Overcast
12:53 PM 51.1 °F - 46.9 °F 86% 29.58 in 10.0 mi SSW 21.9 mph 29.9 mph N/A   Overcast
1:53 PM 52.0 °F - 46.9 °F 83% 29.61 in 10.0 mi SSW 23.0 mph 27.6 mph N/A   Mostly Cloudy
2:53 PM 52.0 °F - 48.0 °F 86% 29.62 in 10.0 mi South 18.4 mph - N/A   Overcast
3:53 PM 52.0 °F - 45.0 °F 77% 29.64 in 10.0 mi SSW 18.4 mph - N/A   Overcast
4:53 PM 52.0 °F - 44.1 °F 74% 29.66 in 10.0 mi SSW 21.9 mph 31.1 mph N/A   Overcast
5:53 PM 53.1 °F - 45.0 °F 74% 29.67 in 10.0 mi SSW 20.7 mph 32.2 mph N/A   Partly Cloudy
6:53 PM 52.0 °F - 43.0 °F 71% 29.69 in 10.0 mi SSW 24.2 mph 32.2 mph N/A   Clear
7:53 PM 51.1 °F - 45.0 °F 80% 29.71 in 10.0 mi South 16.1 mph - N/A   Clear
8:53 PM 51.1 °F - 44.1 °F 77% 29.73 in 10.0 mi South 15.0 mph - N/A   Clear
9:53 PM 50.0 °F - 43.0 °F 77% 29.76 in 10.0 mi South 11.5 mph - N/A   Clear
10:53 PM 48.0 °F - 42.1 °F 80% 29.78 in 10.0 mi South 12.7 mph - N/A   Clear
11:53 PM 48.0 °F - 39.9 °F 74% 29.81 in 10.0 mi South 10.4 mph - N/A   Clear